COSMOS 1562

Satellite information

Favourite Embed

Satellite Type and Status

PAYLOADIN ORBIT

Key statistics

Satellite COSMOS 1562 at a glance.

Uptime

14960

Days in orbit

Revolutions

≈ 12.5

Per day

Orbit

LEO

Low Earth Orbit

Inclination

74.0

Latest

Satellite identification and parameters

Extended collection of information and parameters for COSMOS 1562.

Object identification

Identified? True

Debris? False

Object name: COSMOS 1562

International designator: 1984-052D

Object number (NORAD): 15001

Object ID (CCSDS): 15001

Country: COMMONWEALTH OF INDEPENDENT STATES (CIS)

Current information (Y/N): Y

RCS size: MEDIUM

Orbital parameters

Period: 115.204 minutes

Inclination: 74.009 deg

SMA: 7842.806 km

Apoapsis: 1476.424 km

Periapsis: 1452.918 km

RAAN: 129.2979 deg

Eccentricy: 0.0014986

Argument of periapsis: 1.5913 deg

Mean anomaly: 150.0536 deg

Mean motion: 12.49958417 rev/day

Mean motion (dot): -0.00000007 rev/day2

B* drag term: 0.000061414 1/REarth

Two-line elements (TLE)

Creation date: May 12, 2025, 7:41 p.m.

Reference frame: TEME

Reference center: EARTH

Epoch: May 12, 2025, 10:08 a.m. UTC

TLE line 0: 0 COSMOS 1562

TLE line 1: 1 15001U 84052D 25132.42286834 -.00000007 00000-0 61414-4 0 9994

TLE line 2: 2 15001 74.0090 129.2979 0014986 1.5913 150.0536 12.49958417868704

Live tracking on map

Real-time ground track for satellite COSMOS 1562.

In-orbit conjunctions

There are no conjunctions computed for COSMOS 1562, at the moment. Check back to stay up to date, as we update our databases every day.

Go to all conjunctions

Associated space launch

Military communications satellites

COSMOS 1562 was lifted into orbit during the mission ‘Kosmos-3M | Strela-1M 281-288’, on board a Kosmos-3M space rocket.

The launch took place on May 28, 1984, 9:52 p.m. from 132/2.

For more information about the launch, click the button.

Launch to space Kosmos-3M | Strela-1M 281-288
Kosmos-3M | Strela-1M 281-288

Agency: N/A

Status: Launch Successful

Launch date: May 28, 1984, 9:52 p.m. UTC

Rocket: Kosmos-3M

Launch pad: 132/2

Location: Plesetsk Cosmodrome, Russian Federation

...

Latest news about this satellite

There are no fresh news available about this satellite. Check back as we update our databases every day.


Newsletter sign-up

Weekly statistics, charts and insights to help you stay on top of the space industry.